Theta_e
308 309 309 310 310 310 309 309 309 309 309 309 309 310 311 311 311 315 321 323 323 316 315 320 316 320 322 324 324 324 325 327 329 331 337 333 338 337 338 339 337 347 345 350 349
309 310 311 311 311 311 310 309 309 309 309 309 310 311 311 312 315 319 325 322 316 315 318 319 320 321 322 323 323 324 325 328 332 333 333 331 329 328 331 338 342 346 350 349 347
311 311 312 312 312 311 310 309 310 311 310 310 310 311 311 313 321 326 322 316 315 315 322 321 321 321 322 323 324 324 324 327 330 331 331 330 329 329 330 335 339 341 350 349 348
311 312 312 312 312 312 310 310 313 312 312 312 311 311 311 315 331 323 317 315 315 319 321 321 320 321 323 324 324 324 325 325 326 329 329 329 329 328 328 331 335 340 339 349 348
312 313 313 313 313 312 310 311 315 312 311 312 311 311 312 321 327 322 317 314 314 317 321 320 321 322 323 324 324 324 324 324 324 325 327 328 328 328 327 330 334 347 349 349 348
313 313 313 313 313 312 310 313 315 315 311 311 311 311 315 327 326 319 315 314 319 319 320 321 323 322 323 324 323 325 324 324 324 324 324 327 328 328 328 330 336 336 347 348 348
313 313 313 313 313 312 311 315 315 317 312 312 311 312 323 326 325 322 320 320 321 320 321 322 321 321 324 324 323 323 323 324 324 324 325 326 326 328 327 330 330 338 339 347 348
313 313 313 313 313 311 313 315 316 318 319 312 312 313 329 323 325 323 321 321 320 321 320 321 321 322 323 324 324 323 324 324 325 326 325 325 325 328 328 329 329 332 343 345 346
313 313 313 313 313 311 315 316 316 317 320 314 315 320 332 322 323 322 321 321 320 321 321 322 321 323 324 323 324 325 325 326 327 328 327 325 326 334 333 331 330 340 344 344 346
313 313 313 313 314 312 316 316 315 316 319 316 325 329 329 322 322 323 322 324 323 323 323 323 322 324 324 324 325 327 327 327 328 329 329 328 332 333 333 331 329 336 341 343 345
312 313 313 314 314 314 318 322 326 323 326 323 325 328 325 324 323 323 323 324 324 323 325 324 325 326 326 327 327 326 326 327 327 328 329 333 333 333 333 334 336 337 337 339 343
311 312 313 314 314 315 320 326 323 323 323 324 325 325 324 323 321 322 323 324 324 325 327 328 328 328 327 325 325 326 326 327 328 327 328 333 334 335 336 338 339 340 340 342 342
308 310 312 314 314 316 319 323 321 322 323 325 322 323 324 322 322 323 323 324 325 328 327 329 328 326 325 325 326 327 327 328 327 331 329 328 337 334 331 329 332 340 343 343 345
307 308 310 314 318 321 322 323 321 322 326 325 321 322 322 322 323 323 323 325 325 327 327 329 327 325 326 327 327 329 327 326 325 326 327 329 335 334 332 333 330 334 342 343 345
306 307 309 309 314 319 326 322 321 322 335 324 322 323 323 324 324 323 322 324 326 328 327 329 326 326 327 328 327 329 328 326 327 327 328 328 333 338 335 333 336 338 341 342 344
306 307 308 310 316 315 319 320 322 325 332 323 323 324 323 324 325 323 322 323 326 327 327 329 329 329 330 329 327 327 327 329 330 330 330 332 332 338 337 333 335 337 337 338 341
307 308 308 308 315 319 318 320 325 328 326 325 324 325 325 324 324 323 323 326 327 326 326 330 329 328 329 328 328 329 329 332 335 337 336 333 332 338 334 333 332 335 334 334 334
308 308 309 309 314 319 319 323 328 326 327 326 325 323 324 324 324 324 323 324 325 326 328 328 328 329 328 327 329 332 331 332 335 335 335 332 334 336 335 332 329 331 333 334 334
308 310 318 315 314 317 320 324 326 327 326 325 324 324 324 325 325 324 325 325 326 327 327 330 330 329 328 327 327 328 329 332 332 331 331 330 333 335 332 329 328 331 333 333 332
308 310 314 318 322 321 322 323 324 324 326 327 324 324 325 326 325 325 325 326 327 325 327 331 331 329 328 326 325 325 327 332 328 331 333 333 333 333 331 330 329 330 330 332 333
312 322 319 322 321 321 321 321 324 323 323 326 327 326 325 326 325 326 326 327 327 327 326 328 330 330 328 327 327 329 326 326 328 330 330 328 330 333 333 330 329 328 328 334 332
315 321 324 321 321 320 322 322 322 322 323 324 327 328 329 327 327 326 327 329 327 327 327 327 329 331 330 329 328 328 326 327 328 329 331 331 330 329 329 329 328 328 326 331 334
316 319 322 323 322 322 322 322 322 322 322 323 324 327 328 328 329 328 331 329 328 327 329 333 329 331 330 330 330 329 329 327 328 333 332 330 326 328 330 329 328 328 327 328 330
316 320 319 323 321 324 327 324 324 322 321 322 325 325 326 328 329 328 330 329 328 328 325 331 334 331 330 333 331 331 330 329 328 330 329 329 329 329 329 329 328 327 327 326 326
315 320 321 323 322 323 326 328 325 324 321 323 325 327 327 328 328 328 329 330 327 325 327 331 331 328 328 328 328 329 328 328 329 329 330 328 328 328 329 329 326 325 326 326 326
315 320 321 323 324 326 322 327 327 325 325 322 323 324 326 330 329 328 328 330 330 328 328 332 332 330 329 327 327 328 328 327 326 326 327 326 326 326 326 326 326 327 326 326 327
314 318 318 320 321 324 326 325 325 325 325 324 327 324 325 325 329 329 329 330 332 331 333 333 332 333 331 327 327 328 328 328 328 328 328 329 328 328 329 328 327 326 325 325 328
Wind_Speed
12 13 13 14 14 15 15 15 15 14 13 12 11 10 9 9 8 7 4 10 11 8 3 2 4 6 8 13 13 7 9 13 15 4 11 5 6 7 5 25 26 13 29 27 25
12 13 13 14 15 15 15 15 15 14 11 9 9 9 7 8 9 11 12 12 13 8 4 6 6 6 12 12 9 13 12 15 10 9 10 8 7 9 5 13 11 19 28 24 24
12 13 13 15 15 15 15 14 12 11 10 9 8 7 6 8 7 3 8 8 8 9 7 8 6 6 13 11 12 12 14 15 8 6 11 12 9 8 6 5 18 24 20 23 23
12 13 14 16 16 15 15 12 11 10 10 8 7 6 6 5 3 4 3 5 9 14 4 5 8 10 13 8 12 9 13 13 11 3 5 11 12 2 8 3 9 30 27 22 20
12 14 14 15 16 15 14 11 11 11 7 5 4 6 6 6 8 1 3 5 8 9 6 7 9 11 11 4 5 8 14 4 9 12 5 12 8 13 9 12 12 24 24 20 17
13 14 15 15 15 15 13 10 10 10 5 2 4 6 4 11 2 0 3 7 6 5 6 9 8 8 10 7 5 5 11 9 7 10 13 9 12 11 11 8 12 6 22 23 22
13 14 15 15 15 15 11 10 10 7 4 2 4 4 5 8 3 4 7 8 5 5 6 5 7 9 13 8 8 8 9 12 9 8 6 6 11 13 12 7 2 10 9 21 24
14 16 15 15 16 14 10 11 8 4 3 2 4 5 7 4 6 7 9 7 6 7 5 5 7 11 14 11 8 11 15 13 10 2 8 3 14 22 17 5 9 4 11 3 9
15 16 15 16 15 13 9 10 5 4 2 2 4 4 11 6 8 8 10 7 5 6 9 9 7 13 14 10 13 14 13 10 10 2 4 7 7 12 6 7 6 13 12 4 9
15 15 15 15 15 10 9 7 5 3 2 6 5 7 13 9 10 11 10 7 7 8 10 10 11 13 12 11 10 8 4 4 2 8 8 10 4 11 4 4 7 5 7 6 8
16 15 16 14 13 7 8 5 6 4 10 12 9 13 6 7 11 11 11 7 11 10 12 17 12 15 12 10 10 10 10 6 7 5 7 17 7 9 8 8 6 7 2 9 14
17 15 15 13 12 4 4 4 5 9 11 21 13 13 3 7 9 12 13 11 11 14 17 14 14 9 7 5 6 3 7 6 5 3 5 12 6 12 16 17 11 9 10 11 12
17 16 15 12 8 3 5 8 7 9 8 13 15 15 11 9 10 15 16 16 13 14 9 13 10 9 4 4 10 6 8 6 5 6 6 9 11 12 13 27 28 11 12 10 8
16 16 15 12 4 5 7 4 7 7 5 10 14 12 13 14 12 14 15 18 8 15 12 9 10 5 8 11 8 3 5 4 6 7 10 10 3 6 11 16 34 51 12 14 12
15 16 12 14 11 7 3 5 7 3 5 17 14 9 14 17 12 13 15 16 14 12 3 2 9 7 12 4 3 8 6 8 9 9 11 13 4 9 17 8 9 14 15 13 13
15 16 14 9 10 6 9 8 6 5 8 12 13 12 17 19 9 15 13 14 12 18 11 14 2 6 9 6 1 10 9 11 11 12 11 2 7 7 5 8 6 16 15 12 12
16 15 16 12 10 3 8 8 5 9 13 10 15 13 15 14 11 11 14 12 10 5 10 6 8 7 2 7 9 7 10 10 4 3 12 4 7 6 13 10 5 14 17 11 11
18 15 13 13 10 8 8 8 9 13 15 10 12 14 14 13 13 13 14 14 15 14 9 10 10 10 6 8 11 8 5 7 9 4 6 8 5 9 15 16 13 13 13 13 9
19 12 13 5 9 6 10 9 9 16 11 4 14 16 16 13 9 12 15 13 15 11 10 7 5 10 4 2 7 8 5 10 8 14 8 4 11 16 15 12 15 17 15 13 10
20 16 14 11 10 8 8 15 16 8 9 6 10 12 14 16 10 12 14 15 10 9 8 8 1 7 8 2 8 9 11 7 4 5 5 9 3 10 11 11 11 13 16 15 10
14 8 6 10 9 12 10 16 18 15 5 5 11 9 13 12 14 13 10 9 6 9 6 7 3 2 5 5 11 7 8 3 5 5 7 6 4 9 7 6 4 5 10 19 13
9 7 7 12 12 15 12 19 19 7 6 10 11 14 15 15 13 13 12 4 12 3 4 8 3 8 12 5 5 4 7 13 4 5 7 7 9 9 3 1 4 5 9 7 14
7 16 8 11 10 11 18 21 13 8 15 9 12 12 10 11 11 9 10 7 6 7 2 6 3 7 12 10 6 5 8 11 7 4 9 10 10 1 7 2 3 5 10 2 5
7 5 13 12 19 18 15 17 12 12 14 14 11 12 12 11 11 4 12 6 5 5 7 5 5 9 11 3 7 8 10 11 5 6 10 13 16 17 3 8 7 8 10 13 11
6 8 8 5 13 16 16 17 14 14 10 12 8 13 8 9 15 9 14 11 5 5 1 2 8 12 15 18 16 13 14 15 15 15 14 15 17 16 15 15 13 7 8 12 14
7 10 15 19 12 9 14 13 14 12 10 14 10 14 13 10 12 11 8 9 8 9 7 6 5 10 15 18 19 18 18 21 18 17 20 20 20 16 20 16 17 9 11 13 13
10 14 10 13 11 9 10 12 15 14 4 7 12 13 13 4 9 8 8 7 8 2 8 8 5 7 14 16 19 16 16 18 15 14 16 15 16 13 12 12 7 8 6 11 11
Wind_Direction
326 330 329 330 328 327 322 318 317 311 308 303 296 299 298 286 270 268 272 260 228 260 228 192 227 247 238 239 237 260 267 253 259 258 155 97 124 200 56 153 204 90 143 158 158
331 330 336 332 331 329 325 320 319 315 310 301 298 298 292 269 267 250 257 274 253 209 156 183 204 214 230 224 221 242 237 263 10 31 41 51 0 46 307 173 165 118 123 139 148
333 335 341 336 334 330 327 324 324 317 305 297 295 280 257 266 292 169 227 259 194 171 173 238 265 221 239 239 216 229 263 308 6 19 355 348 289 58 278 45 85 14 112 145 148
332 338 345 339 335 332 330 329 331 321 301 289 278 254 244 253 333 128 234 215 173 166 252 249 242 220 251 223 234 251 263 296 309 127 270 262 299 298 288 63 126 158 147 154 147
335 342 344 340 335 334 331 330 334 336 321 284 261 239 229 266 251 282 240 190 160 150 222 202 215 238 261 232 254 241 276 290 269 292 278 272 300 298 296 68 112 136 136 142 150
338 341 341 340 336 333 331 327 335 341 338 297 246 226 226 255 213 132 199 155 166 214 226 238 282 331 297 286 253 333 274 301 263 249 242 253 257 248 267 83 119 132 149 167 159
336 339 340 341 336 333 331 329 326 324 334 287 222 226 241 282 174 167 170 179 194 215 262 283 302 283 312 247 239 282 259 237 225 246 262 261 267 258 260 131 297 172 215 190 145
335 338 340 339 336 332 333 332 324 305 317 267 200 205 276 192 193 190 188 202 223 248 270 289 266 282 280 297 265 241 243 244 124 259 187 204 271 234 217 149 227 226 23 102 135
331 334 337 338 334 333 331 333 316 296 278 202 154 240 263 197 197 195 193 196 216 244 251 271 268 266 264 241 240 223 242 169 148 105 155 203 248 61 31 292 276 106 123 149 150
326 334 332 335 334 334 324 324 303 245 221 182 215 264 226 214 192 193 198 238 224 241 243 234 243 242 218 235 268 237 226 116 79 149 221 197 24 74 97 267 271 152 159 169 194
327 333 329 334 332 328 324 312 296 236 214 205 223 237 148 137 167 194 196 212 237 242 241 202 231 234 202 14 341 351 331 72 95 77 336 356 76 68 24 6 21 6 342 202 177
326 328 325 327 325 305 312 283 4 320 286 233 258 242 190 170 181 195 192 216 210 230 221 221 232 54 36 348 295 303 243 219 109 129 278 178 235 66 48 24 41 44 32 12 165
324 327 323 319 317 289 288 296 316 322 272 238 214 218 208 200 196 193 191 224 231 238 230 262 80 94 234 177 243 222 312 44 304 149 234 256 57 27 339 354 326 358 71 59 67
326 325 324 316 337 288 266 282 324 315 271 185 199 220 190 208 223 198 201 224 230 259 223 274 93 175 222 242 280 243 68 328 282 258 283 174 145 16 62 50 280 269 84 77 79
323 318 320 313 301 266 358 313 321 311 274 150 177 202 186 211 158 198 198 237 269 262 222 187 149 222 241 101 337 31 334 285 291 284 266 247 162 159 145 183 282 109 104 91 83
317 313 311 311 283 266 302 291 291 238 255 174 154 179 189 217 187 172 200 244 277 287 230 269 5 270 19 68 310 328 275 252 256 255 238 109 300 166 193 192 193 116 95 94 103
310 303 294 278 236 321 289 266 227 240 128 161 173 186 206 197 197 164 196 205 234 220 218 214 192 228 298 272 197 223 271 271 250 320 308 144 272 137 213 209 162 118 116 113 113
312 300 289 264 236 283 281 244 242 228 239 140 174 182 196 191 199 177 197 210 234 241 246 222 200 182 139 269 332 282 341 302 313 326 200 205 120 141 182 192 119 117 119 136 132
319 304 278 261 241 216 250 230 221 263 332 171 187 185 207 184 198 187 218 225 207 232 259 259 164 101 86 343 309 316 266 344 313 269 265 146 62 146 144 145 149 147 148 156 153
327 312 263 226 206 203 232 245 251 308 329 315 224 200 211 194 210 188 202 221 201 199 283 343 207 150 135 235 252 276 337 294 278 299 270 2 185 116 149 163 164 169 177 159 167
324 284 167 188 192 209 229 238 246 264 291 283 276 251 237 211 189 219 232 202 139 168 268 288 295 199 163 218 259 187 234 218 328 309 325 326 95 155 154 166 168 211 208 158 172
290 269 175 185 210 224 232 239 267 286 192 257 284 292 279 245 204 220 221 333 166 167 216 246 293 269 261 56 20 312 322 316 302 290 327 318 298 76 110 51 218 245 278 128 121
285 262 218 210 232 232 228 250 246 240 258 236 249 261 301 287 280 207 122 74 113 181 24 0 223 255 273 243 209 271 286 262 268 303 286 294 291 328 107 228 293 281 285 176 168
288 258 225 215 240 269 294 231 233 220 263 260 259 250 246 271 276 258 127 116 106 55 77 12 285 273 275 70 253 253 231 261 244 261 276 272 288 305 246 227 240 236 249 257 264
248 258 323 238 221 240 258 277 212 221 215 255 254 268 246 231 257 221 265 118 127 95 68 222 248 260 271 284 287 285 288 280 274 264 257 260 262 275 294 312 326 346 335 322 311
280 339 332 293 298 287 239 252 276 241 193 223 221 251 242 255 251 267 240 191 190 161 217 179 262 280 283 287 290 288 282 281 271 268 282 283 280 286 293 287 291 345 341 316 313
275 294 270 290 272 266 263 221 252 257 163 258 319 226 251 268 19 23 23 7 30 35 177 238 242 261 267 277 278 272 271 274 286 278 275 278 291 306 310 308 335 327 320 307 301